ATLAS 5 CENTAUR DEB, 46607

Orbit data source: Space-Track

ATLAS 5 CENTAUR DEB, 46607 is space debris in HEO originally from a launch on Wed, 17 Oct 2018 UTC launched from the Air Force Eastern Test Range (AFETR). Debris objects in space refer to the collection of defunct objects orbiting the Earth. Examples of debris include non-operational satellites, rocket bodies, and fragments generated from explosions, collisions, or faulty payload assembly.

Loading next visibility...
Identifier
46607, 2018-079CF
Orbit
HEO
Country
Flag of USUS
Related business
Flag of USUnited Launch Alliance/Lockheed Martin (US)
Manufacturer
ULA Decatur
Mission
Spacecraft
Bus & Motor
Unknown
Mass
Unknown
Launch date (UTC)
2018-10-17 (7 years ago)
Launch vehicle
Unknown
Launch site
Air Force Eastern Test Range (AFETR)
Object type
Payload
Rocket body
Debris
Shape & HBR
Unknown shape, 1.1 m
Radar Cross Section
RCS unknown

Expand to show TLE details & history
Last TLE update: 3 months ago

TLE from 3 months ago
0 ATLAS 5 CENTAUR DEB
1 46607U 18079CF  25206.71137316 -.00000127  00000-0  00000-0 0  9993
2 46607  12.9500  23.0692 4583508   1.5755 359.4359  2.05138348 43751
Epoch: 2025-07-25T17:04Z
TLE epoch observation values (Epoch: 2025-07-25T17:04:22.641Z)
Latitude
0.00012°
Longitude
-176.65558°
Altitude
7,822.659 km
Speed
6.396 km/s
True Right ascension
01h 32m 23s
True Declination
0° 00' 00"
Sunlit
Object was in daylight at epoch
Visualization orbit readout
Latitude
Unknown
Longitude
Unknown
Altitude
Unknown
Speed
Unknown
Apparent Right ascension
Unknown
Apparent Declination
Unknown
Sunlit
N/A
Visualization observer readout
Local Sidereal Time
18:16:49
Azimuth
Unknown
Elevation
Unknown
Doppler factor
Unknown
Orbital elements
Apogee altitude
31,781.392 km
Perigee altitude
7,794.776 km
Semi-major axis
26,166.221 km
Eccentricity
0.45835
Inclination
12.95°
RAAN
23.0692°
Arg. of periapsis
1.5755°
True anomaly
358.29129°
Mean anomaly
359.4359°
Eccentric anomaly
358.9586°
Mean motion
0.51278 °/min
Orbital period
702.05 mins
BSTAR
0
Loading maneuver chart data...
Computing Atmospheric mass density...

Documentation

Showing up to 5 results
|